Date,TemperatureHighF,TemperatureAvgF,TemperatureLowF,DewpointHighF,DewpointAvgF,DewpointLowF,HumidityHigh,HumidityAvg,HumidityLow,PressureMaxIn,PressureMinIn,WindSpeedMaxMPH,WindSpeedAvgMPH,GustSpeedMaxMPH,PrecipitationSumIn
2013-6-1,68,62,58,63,59,57,97,90,75,30.05,29.96,11,5,16,0.00
2013-6-2,67,64,60,62,61,59,96,89,81,29.98,29.84,20,10,29,0.00
2013-6-3,64,61,59,62,60,58,100,97,90,29.89,29.83,18,10,25,0.00
2013-6-4,65,61,57,60,48,41,100,64,50,30.10,29.86,20,13,29,0.00
2013-6-5,65,60,56,55,52,50,89,75,60,30.24,30.10,13,7,16,0.00
2013-6-6,63,59,57,58,56,54,96,90,80,30.22,30.11,13,6,18,0.00
2013-6-7,59,58,57,58,57,55,99,95,86,30.11,29.72,25,17,36,0.00
2013-6-8,67,61,56,63,59,54,100,92,81,30.06,29.56,20,12,27,0.00
2013-6-9,68,63,58,62,59,58,98,88,71,30.21,30.04,11,6,13,0.00
2013-6-10,66,62,59,60,59,58,98,91,75,30.21,29.95,22,8,31,0.00
2013-6-11,71,63,59,65,62,58,100,95,82,29.97,29.61,22,11,29,0.00
2013-6-12,68,64,61,62,56,52,92,75,55,29.86,29.65,20,14,31,0.00
2013-6-13,63,59,57,57,56,54,96,87,78,29.86,29.54,27,10,43,0.00
2013-6-14,64,59,55,59,54,50,96,82,64,29.83,29.54,25,17,34,0.00
2013-6-15,69,64,60,60,56,52,93,76,56,29.99,29.83,13,8,18,0.00
2013-6-16,68,64,59,62,60,56,97,86,67,30.00,29.79,13,5,20,0.00
2013-6-17,71,66,61,65,62,59,97,88,69,29.96,29.84,20,7,31,0.00
2013-6-18,71,64,61,63,61,59,98,91,76,29.96,29.87,13,6,18,0.00
2013-6-19,70,63,59,60,57,53,93,81,56,30.18,29.89,18,10,25,0.00
2013-6-20,69,63,59,61,56,51,93,76,64,30.31,30.17,11,6,13,0.00
2013-6-21,68,66,62,61,59,54,91,76,67,30.32,30.27,13,10,18,0.00
2013-6-22,69,66,63,63,61,59,96,84,72,30.30,30.19,11,7,13,0.00
2013-6-23,72,66,62,66,64,62,99,90,75,30.23,30.10,13,6,18,0.00
2013-6-24,72,67,63,68,66,63,100,95,84,30.12,29.96,13,5,16,0.00
2013-6-25,72,68,64,67,65,62,96,90,79,30.00,29.79,16,8,18,0.00
2013-6-26,71,68,65,67,65,63,96,90,83,29.86,29.78,13,8,18,0.00
2013-6-27,70,66,63,67,65,63,100,96,87,29.86,29.74,13,7,18,0.00
2013-6-28,69,67,66,68,67,66,100,98,93,29.72,29.55,20,12,27,0.00
2013-6-29,70,67,65,68,67,65,100,97,87,29.77,29.54,16,8,20,0.00
2013-6-30,70,68,66,69,67,65,100,97,86,29.98,29.77,16,6,20,0.00